Radiation Dose measured at exhaust stack monitor of Miscellaneous Solid Waste Incinerator Building/Incinerator raregas monitor
Date,Time,Incinerator Gas Monitor(cps),Wind Direction,Wind Velocity(m/s)
2023/10/09,00:00,1.5,west-northwest,1.6
2023/10/09,00:10,1.5,west-northwest,1.6
2023/10/09,00:20,1.5,west-northwest,1.5
2023/10/09,00:30,1.4,west-northwest,1.3
2023/10/09,00:40,1.4,west-northwest,1.1
2023/10/09,00:50,1.4,west-northwest,1.1
2023/10/09,01:00,1.4,west-northwest,1.6
2023/10/09,01:10,1.5,northwest,2.2
2023/10/09,01:20,1.4,west-northwest,2.4
2023/10/09,01:30,1.4,west-northwest,2.4
2023/10/09,01:40,1.4,west-northwest,2.4
2023/10/09,01:50,1.4,west-northwest,2.6
2023/10/09,02:00,1.5,west-northwest,2.0
2023/10/09,02:10,1.4,west-northwest,1.9
2023/10/09,02:20,1.5,northwest,2.0
2023/10/09,02:30,1.5,northwest,1.6
2023/10/09,02:40,1.5,northwest,2.0
2023/10/09,02:50,1.5,northwest,0.8
2023/10/09,03:00,1.6,west-northwest,1.8
2023/10/09,03:10,1.4,west-northwest,2.3
2023/10/09,03:20,1.5,northwest,2.2
2023/10/09,03:30,1.5,northwest,2.0
2023/10/09,03:40,1.4,west-northwest,2.4
2023/10/09,03:50,1.4,northwest,1.4
2023/10/09,04:00,1.4,northwest,1.5
2023/10/09,04:10,1.5,northwest,1.9
2023/10/09,04:20,1.4,northwest,1.7
2023/10/09,04:30,1.5,north-northwest,1.2
2023/10/09,04:40,1.4,northwest,1.5
2023/10/09,04:50,1.5,northwest,1.4
2023/10/09,05:00,1.4,northwest,1.6
2023/10/09,05:10,1.5,northwest,1.7
2023/10/09,05:20,1.4,north-northwest,1.7
2023/10/09,05:30,1.5,north-northwest,1.3
2023/10/09,05:40,1.5,north-northwest,1.3
2023/10/09,05:50,1.4,north-northwest,1.7
2023/10/09,06:00,1.4,north-northwest,1.6
2023/10/09,06:10,1.4,north-northwest,2.1
2023/10/09,06:20,1.5,north-northwest,2.0
2023/10/09,06:30,1.4,north-northwest,2.0
2023/10/09,06:40,1.6,north-northwest,2.0
2023/10/09,06:50,1.4,north-northwest,1.9
2023/10/09,07:00,1.5,north-northwest,2.0
2023/10/09,07:10,1.5,north-northwest,1.6
2023/10/09,07:20,1.4,north-northwest,1.5
2023/10/09,07:30,1.5,north-northwest,1.8
2023/10/09,07:40,1.5,north-northwest,3.2
2023/10/09,07:50,1.5,north-northwest,3.1
2023/10/09,08:00,1.5,north-northwest,1.9
2023/10/09,08:10,1.4,north-northwest,2.1
2023/10/09,08:20,1.5,north-northwest,2.9
2023/10/09,08:30,1.4,north-northwest,3.4
2023/10/09,08:40,1.6,north-northwest,3.0
2023/10/09,08:50,1.5,north-northwest,2.1
2023/10/09,09:00,1.6,north-northwest,2.1
2023/10/09,09:10,1.5,north-northwest,2.1
2023/10/09,09:20,1.4,north-northwest,2.2
2023/10/09,09:30,1.5,north-northwest,2.0
2023/10/09,09:40,1.4,north-northwest,2.1
2023/10/09,09:50,1.5,north-northwest,2.0
2023/10/09,10:00,1.5,north-northwest,2.3
2023/10/09,10:10,1.5,north-northwest,2.0
2023/10/09,10:20,1.5,north-northwest,1.6
2023/10/09,10:30,1.5,northwest,0.8
2023/10/09,10:40,1.5,northwest,1.0
2023/10/09,10:50,1.4,north-northwest,1.3
2023/10/09,11:00,1.4,north-northwest,2.2
2023/10/09,11:10,1.4,north-northwest,2.3
2023/10/09,11:20,1.5,north-northwest,2.2
2023/10/09,11:30,1.5,north-northwest,2.3
2023/10/09,11:40,1.4,north-northwest,1.7
2023/10/09,11:50,1.5,north-northwest,1.6
2023/10/09,12:00,1.5,northwest,1.7
2023/10/09,12:10,1.5,northwest,1.4
2023/10/09,12:20,1.5,north-northwest,1.5
2023/10/09,12:30,1.4,north-northwest,2.3
2023/10/09,12:40,1.4,north-northwest,1.5
2023/10/09,12:50,1.5,northwest,1.8
2023/10/09,13:00,1.5,northwest,1.2
2023/10/09,13:10,1.4,north-northwest,1.2
2023/10/09,13:20,1.5,northwest,1.5
2023/10/09,13:30,1.4,northwest,1.6
2023/10/09,13:40,1.5,northwest,1.5
2023/10/09,13:50,1.5,northwest,1.3
2023/10/09,14:00,1.4,north-northwest,1.2
2023/10/09,14:10,1.5,north-northwest,1.9
2023/10/09,14:20,1.5,north-northwest,1.2
2023/10/09,14:30,1.4,north,1.9
2023/10/09,14:40,1.4,north,1.8
2023/10/09,14:50,1.5,north-northwest,1.4
2023/10/09,15:00,1.5,northwest,1.1
2023/10/09,15:10,1.4,northwest,1.4
2023/10/09,15:20,1.5,northwest,1.2
2023/10/09,15:30,1.5,west-northwest,1.5
2023/10/09,15:40,1.5,northwest,1.0
2023/10/09,15:50,1.5,northwest,1.1
2023/10/09,16:00,1.5,north-northwest,1.0
2023/10/09,16:10,1.5,northwest,1.1
2023/10/09,16:20,1.5,northwest,0.9
2023/10/09,16:30,1.5,northwest,1.0
2023/10/09,16:40,1.5,north-northwest,1.1
2023/10/09,16:50,1.4,north-northwest,1.0
2023/10/09,17:00,1.5,north-northwest,1.1
2023/10/09,17:10,1.5,northwest,0.8
2023/10/09,17:20,1.5,northwest,0.8
2023/10/09,17:30,1.5,west-northwest,1.1
2023/10/09,17:40,1.4,northwest,1.1
2023/10/09,17:50,1.5,northwest,1.0
2023/10/09,18:00,1.4,north,1.4
2023/10/09,18:10,1.5,northwest,1.0
2023/10/09,18:20,1.5,west-northwest,1.0
2023/10/09,18:30,1.5,north-northwest,1.4
2023/10/09,18:40,1.5,northwest,0.9
2023/10/09,18:50,1.4,northwest,1.4
2023/10/09,19:00,1.5,northwest,1.3
2023/10/09,19:10,1.4,north,2.1
2023/10/09,19:20,1.4,north,2.1
2023/10/09,19:30,1.5,north-northwest,2.0
2023/10/09,19:40,1.5,north,2.0
2023/10/09,19:50,1.5,north,1.6
2023/10/09,20:00,1.5,north-northeast,1.3
2023/10/09,20:10,1.4,north-northeast,1.7
2023/10/09,20:20,1.4,north,1.7
2023/10/09,20:30,1.5,north-northwest,2.1
2023/10/09,20:40,1.5,north-northwest,1.6
2023/10/09,20:50,1.4,north-northwest,2.5
2023/10/09,21:00,1.4,north-northwest,2.0
2023/10/09,21:10,1.5,north-northwest,1.9
2023/10/09,21:20,1.6,northwest,1.7
2023/10/09,21:30,1.5,northwest,2.0
2023/10/09,21:40,1.4,northwest,1.9
2023/10/09,21:50,1.5,north-northwest,1.9
2023/10/09,22:00,1.5,north-northwest,2.3
2023/10/09,22:10,1.5,north-northwest,1.8
2023/10/09,22:20,1.5,north-northwest,2.4
2023/10/09,22:30,1.5,northwest,2.2
2023/10/09,22:40,1.5,north-northwest,2.1
2023/10/09,22:50,1.4,north-northwest,3.0
2023/10/09,23:00,1.5,north-northwest,2.3
2023/10/09,23:10,1.5,north-northwest,3.2
2023/10/09,23:20,1.5,north-northwest,3.7
2023/10/09,23:30,1.5,north-northwest,2.3
2023/10/09,23:40,1.5,north-northwest,2.6
2023/10/09,23:50,1.4,north-northwest,2.6
